Home > Weather > Holguín > Past weeks

Flag for Cuba Weather for the Past 2 Weeks in Holguín, Cuba

Now
72 °F

Fog.


Feels Like: 67 °F
Forecast: 70 / 80 °F
Wind: 2 mph from North

Location: Holguin Civ / Mil

Current Time: May 6, 2016 at 3:48:31 AM

Latest Report: May 6, 2016 at 2:51 AM


Visibility: 4 mi

Pressure: 29.83 "Hg

Humidity: 94%

Dew Point: 70 °F

Location of HolguínLocation

Historic Weather in Holguín — Graph

°F

Holguín Temperature Yesterday

Maximum temperature yesterday: 88 °F (at 10:50 AM)
Minimum temperature yesterday: 70 °F (at 5:55 PM)
Average temperature yesterday: 76 °F

High & Low Weather Summary for the Past Weeks

 TemperatureHumidityPressure
High97 °F (May 3, 3:51 PM)94% (Apr 23, 1:51 AM)30.01 "Hg (Apr 23, 1:51 AM)
Low64 °F (Apr 27, 4:50 AM)28% (Apr 27, 3:50 PM)29.80 "Hg (May 4, 3:50 PM)
Average79 °F70%29.92 "Hg
* Reported Apr 21 1:50 AM — May 6 1:51 AM, Holguín, Weather by CustomWeather, © 2016

Note: Actual official high and low records may vary slightly from our data, if they occured in-between our weather recording intervals... More about our weather records

Advertising

Holguín Weather History for the Previous 24 Hours

Scroll right to see more
 ConditionsComfort  
Time TempWeatherWind HumidityBarometerVisibility
1:51 AM
Fri, May 6
72 °FFog.3 mph94%29.83 "Hg4 mi
12:50 AM72 °FFog.No wind94%29.83 "Hg4 mi
11:52 PM
Thu, May 5
72 °FPassing clouds.2 mph94%29.86 "Hg5 mi
10:51 PM72 °FPassing clouds.1 mph94%29.86 "Hg5 mi
9:51 PM72 °FFog.2 mph94%29.86 "Hg4 mi
8:53 PM72 °FFog.3 mph94%29.83 "Hg5 mi
7:52 PM72 °FPartly sunny.2 mph94%29.83 "Hg5 mi
6:51 PM72 °FPartly sunny.3 mph88%29.83 "Hg5 mi
5:55 PM70 °FThunderstorms. Mostly cloudy.6 mph94%N/A4 mi
4:51 PM72 °FThunderstorms. Mostly cloudy.6 mph94%N/A2 mi
3:50 PM75 °FThunderstorms. Mostly cloudy.8 mph94%29.80 "Hg2 mi
2:50 PM75 °FThunderstorms. Partly sunny.8 mph94%29.80 "Hg3 mi
1:50 PM79 °FThunderstorms. Partly sunny.6 mph84%29.83 "Hg5 mi
12:50 PM84 °FLight rain. Partly sunny.5 mph62%N/A5 mi
11:50 AM86 °FScattered showers. Partly sunny.9 mph59%29.80 "Hg6 mi
10:50 AM88 °FBroken clouds.15 mph55%29.80 "HgN/A
9:50 AM82 °FBroken clouds.12 mph70%29.83 "Hg6 mi
8:50 AM77 °FBroken clouds.8 mph89%29.83 "Hg6 mi
7:55 AM75 °FBroken clouds.6 mph89%29.83 "Hg6 mi
6:53 AM75 °FLight rain. Partly cloudy.6 mph89%29.83 "Hg4 mi
5:50 AM75 °FPassing clouds.5 mph83%29.83 "Hg5 mi
4:51 AM75 °FPassing clouds.3 mph83%29.83 "Hg5 mi
3:51 AM75 °FPassing clouds.5 mph83%29.83 "Hg5 mi
Weather by CustomWeather, © 2016

See weather overviewHow to use our weather pages